User: anonymous   Login
Location: Unspecified
(0.0000°N, 0.0000°E)
Time: 02:24:50
(UTC+01:00)
Language:

CZ-4 DEB - Orbit

View from above orbital plane
View from above orbital plane
View from above satellite
View from above satellite

Ground track
Ground track

The orbit data is extracted from the following two-line orbital elements,

1 29508U 06046D   14331.12267098  .00031783  00000-0  15935-2 0  7396
2 29508 097.7018 339.9251 0008153 092.4298 308.1730 15.17252064441960
Epoch (UTC): 27 November 2014 02:56:38
Eccentricity: 0.0008153
inclination: 97.7018°
perigee height: 508 km
apogee height: 520 km
right ascension of ascending node: 339.9251°
argument of perigee: 92.4298°
revolutions per day: 15.17252064
mean anomaly at epoch: 308.1730°
orbit number at epoch: 44196

The dashed part of the orbit path shows where the satellite is in the earth's shadow,  

DLR